Folsom Lake Weather Center

Moon Phase Calendar



Folsom Lake Water Level
Online Cameras

 


      

Current Conditions in Granite Bay
5/25/2022 12:39:56 AM

71°F
Feels Like 70
Clear
Humidity
49%
Pressure
29.74"
Wind
4.5 mph (E)
Dew Point
51°F
UV Index
0/10 (Low)
Visibility
6 mi

Hourly Forecast

Date & Time Wed, May 25
12:00 AM
Wed, May 25
1:00 AM
Wed, May 25
2:00 AM
Wed, May 25
3:00 AM
Wed, May 25
4:00 AM
Wed, May 25
5:00 AM
Wed, May 25
6:00 AM
Wed, May 25
7:00 AM
Wed, May 25
8:00 AM
Wed, May 25
9:00 AM
Wed, May 25
10:00 AM
Wed, May 25
11:00 AM
Wed, May 25
12:00 PM
Wed, May 25
1:00 PM
Wed, May 25
2:00 PM
Wed, May 25
3:00 PM
Wed, May 25
4:00 PM
Wed, May 25
5:00 PM
Wed, May 25
6:00 PM
Wed, May 25
7:00 PM
Wed, May 25
8:00 PM
Wed, May 25
9:00 PM
Wed, May 25
10:00 PM
Wed, May 25
11:00 PM
Thu, May 26
12:00 AM
Thu, May 26
1:00 AM
Thu, May 26
2:00 AM
Thu, May 26
3:00 AM
Thu, May 26
4:00 AM
Thu, May 26
5:00 AM
Thu, May 26
6:00 AM
Thu, May 26
7:00 AM
Thu, May 26
8:00 AM
Thu, May 26
9:00 AM
Thu, May 26
10:00 AM
Thu, May 26
11:00 AM
Thu, May 26
12:00 PM
Thu, May 26
1:00 PM
Thu, May 26
2:00 PM
Thu, May 26
3:00 PM
Thu, May 26
4:00 PM
Thu, May 26
5:00 PM
Thu, May 26
6:00 PM
Thu, May 26
7:00 PM
Thu, May 26
8:00 PM
Thu, May 26
9:00 PM
Thu, May 26
10:00 PM
Thu, May 26
11:00 PM
Condition
Clear

Clear

Clear

Clear

Clear

Clear

Clear

Clouds

Clouds

Clouds

Clouds

Clouds

Clouds

Clouds

Clouds

Clouds

Clouds

Clouds

Clouds

Clouds

Clouds

Clouds

Clouds

Clouds

Clear

Clouds

Clouds

Clouds

Clouds

Clouds

Clouds

Clear

Clear

Clear

Clouds

Clouds

Clouds

Clouds

Clouds

Clouds

Clouds

Clouds

Clouds

Clouds

Clouds

Clouds

Clouds

Clouds
Temperature 71°F71°F71°F70°F70°F68°F67°F70°F77°F83°F86°F90°F93°F96°F97°F98°F99°F98°F97°F92°F85°F79°F75°F73°F71°F70°F68°F67°F66°F65°F64°F67°F71°F76°F79°F81°F82°F84°F85°F85°F83°F81°F79°F75°F71°F67°F64°F62°F
Feels Like 70°F70°F70°F69°F68°F67°F65°F69°F76°F81°F83°F86°F89°F91°F93°F94°F94°F93°F92°F88°F82°F79°F74°F72°F70°F69°F67°F65°F64°F63°F63°F65°F70°F75°F79°F79°F80°F81°F82°F82°F81°F80°F79°F74°F69°F66°F62°F60°F
Cloudiness 5%5%5%5%6%6%6%16%32%41%48%52%67%69%79%84%88%90%100%100%100%96%79%68%9%22%18%15%14%15%11%9%9%8%17%30%100%100%100%100%100%100%100%100%100%100%89%83%
Visibility 6 mi6 mi6 mi6 mi6 mi6 mi6 mi6 mi6 mi6 mi6 mi6 mi6 mi6 mi6 mi6 mi6 mi6 mi6 mi6 mi6 mi6 mi6 mi6 mi6 mi6 mi6 mi6 mi6 mi6 mi6 mi6 mi6 mi6 mi6 mi6 mi6 mi6 mi6 mi6 mi6 mi6 mi6 mi6 mi6 mi6 mi6 mi6 mi
Precipitation 0%0%0%0%0%0%0%0%0%0%0%0%0%0%0%0%0%0%0%0%0%0%0%0%0%0%0%0%0%0%0%0%0%0%0%0%0%0%0%0%0%0%0%0%0%0%0%0%
Humidity 44%49%45%42%39%36%33%34%27%23%20%17%15%14%13%13%13%13%14%21%28%32%37%39%40%41%42%44%44%45%47%48%40%35%31%29%26%24%23%23%24%26%29%35%42%48%55%60%
Dew Point 48°F51°F49°F46°F44°F41°F37°F40°F41°F41°F40°F40°F40°F39°F39°F39°F39°F39°F40°F46°F47°F46°F46°F46°F45°F45°F44°F43°F43°F43°F43°F46°F46°F45°F45°F45°F44°F43°F43°F42°F42°F43°F44°F46°F46°F46°F46°F47°F
Pressure 29.74"29.74"29.74"29.74"29.77"29.77"29.8"29.8"29.8"29.8"29.8"29.8"29.77"29.77"29.74"29.71"29.71"29.68"29.68"29.68"29.71"29.71"29.74"29.77"29.77"29.77"29.77"29.77"29.77"29.77"29.77"29.8"29.8"29.83"29.83"29.83"29.83"29.8"29.8"29.8"29.8"29.8"29.8"29.83"29.83"29.85"29.88"29.91"
Wind Speed 4.5 mph4.5 mph4.2 mph4.2 mph4 mph3.9 mph3.8 mph2.8 mph1 mph2.1 mph3.3 mph4.2 mph4.7 mph5.1 mph5.4 mph5.1 mph4.5 mph3.8 mph3.7 mph6.5 mph6 mph4.4 mph6.4 mph6.6 mph6.6 mph6.9 mph7.5 mph6.5 mph4.8 mph3.4 mph3.8 mph4.8 mph5.2 mph5.7 mph7.1 mph9.3 mph9.2 mph9.8 mph10.6 mph10.8 mph11.1 mph9.8 mph8.3 mph7.4 mph6.3 mph5.9 mph5.5 mph5.7 mph
Wind
Direction
92°
E
94°
E
85°
E
81°
E
77°
ENE
74°
ENE
72°
ENE
70°
ENE
101°
E
224°
SW
241°
WSW
251°
WSW
251°
WSW
246°
WSW
247°
WSW
247°
WSW
242°
WSW
234°
SW
215°
SW
216°
SW
220°
SW
163°
SSE
130°
SE
130°
SE
130°
SE
137°
SE
146°
SE
145°
SE
133°
SE
140°
SE
161°
SSE
177°
S
174°
S
205°
SSW
216°
SW
222°
SW
215°
SW
210°
SSW
210°
SSW
210°
SSW
210°
SSW
200°
SSW
188°
S
183°
S
163°
SSE
146°
SE
159°
SSE
141°
SE

Daily Forecast

Date High Low Precip. Humidity
Today
May 25

Clouds
99 °F
67 °F
0%
14%
Thursday
May 26

Clouds
85 °F
62 °F
0%
24%
Friday
May 27

Clouds
85 °F
58 °F
0%
24%
Saturday
May 28

Rain
74 °F
58 °F
24%
43%
Sunday
May 29

Clear
76 °F
54 °F
2%
17%
Monday
May 30

Clear
84 °F
49 °F
8%
15%
Tuesday
May 31

Clouds
86 °F
54 °F
0%
19%
Wednesday
Jun 1

Clouds
90 °F
57 °F
0%
19%
Thursday
Jun 2

Clouds
83 °F
56 °F
0%
24%
Friday
Jun 3

Clear
80 °F
48 °F
0%
15%
Saturday
Jun 4

Clouds
82 °F
49 °F
0%
19%
Sunday
Jun 5

Clouds
76 °F
55 °F
0%
38%
Monday
Jun 6

Rain
77 °F
55 °F
36%
28%
Tuesday
Jun 7

Clouds
86 °F
49 °F
0%
20%
Wednesday
Jun 8

Clear
103 °F
59 °F
0%
9%
Thursday
Jun 9

Clear
102 °F
66 °F
0%
8%

Temperature 8-14 Day Outlook



Precipitation 8-14 Day Outlook




Quick Links
Folsom Lake News
Folsom Lake Photos
Folsom Lake Videos




About Us
Contact Us
Site Map
Search Site
Advertise With Us
   
Folsom.USLakes.info
THE FOLSOM LAKE WEBSITE

Copyright 2022, Lakes Online
Privacy    |    Legal